Weather in Krivtsovo

Russia / Belgorod Oblast     50°47′49″N   36°45′15″E
temp.,
°C
wind,
m/s
gust,
m/s
humid.,
%
clouds,
%
prec.,
mm/h
press.,
hPa
HPBL,
m
17 september, fri
fri1700:00+8ene22595 0.0 101911
03:00+7ese116276 0.0 101910
06:00+7se1162100 0.0 101910
09:00+13sse224247 0.0 1018305
12:00+18sw333278 0.0 10161450
15:00+18wsw333499 0.0 10151145
18:00+15ne3544100 0.0 1015112
21:00+13ene5953100 0.0 1015300
18 september, sat
sat1800:00+11e61168100 0.1 1015319
03:00+11e61270100 0.1 1014401
06:00+11e81375100 0.3 1014397
09:00+10e71277100 1.1 1015441
12:00+10ese71377100 1.8 1014409
15:00+15e91151100 1.9 1013568
18:00+14e81449100 0.0 1011556
21:00+12e81458100 0.0 1012445
19 september, sun
sun1900:00+13ese81448100 0.0 1011419
03:00+14ese71445100 0.0 1010503
06:00+13se71369100 0.8 1010527
09:00+12se71478100 1.0 1010575
12:00+12se61190100 0.4 1010581
15:00+15se5685100 0.4 1010497
18:00+14ese578930 0.2 1009315
21:00+12ese499720 3.0 1009233
20 september, mon
mon2000:00+12sse4999100 3.1 1008279
03:00+11s339793 3.4 100861
06:00+11sw3598100 1.3 1008191
09:00+11wsw3481100 1.4 1009366
12:00+15ssw575960 0.0 10091261
15:00+13w6757100 0.0 1010743
18:00+11w466097 0.0 1011754
21:00+10w377090 0.0 1012601
21 september, tue
tue2100:00+9sw2575100 0.0 1013549
03:00+10sw3680100 0.0 1013665
06:00+9sw4787100 0.0 1013672
09:00+10wsw5780100 0.1 1014889
12:00+10sw5769100 0.1 10151046
15:00+11wsw5759100 0.1 10141473
18:00+9wsw4662100 0.0 10151039
21:00+8wsw3664100 0.0 1015717